Regional Weather Roundup
Issued by NWS

Home | Current Version | Previous Version | Graphics & Text | Print | Product List | Glossary On
Versions: 1 2 3 4 5 6 7 8 9 10 11 12 13 14 15 16 17 18 19 20 21 22 23 24 25 26 27 28 29 30 31 32 33 34 35 36 37 38 39 40 41 42 43 44 45 46 47 48 49 50
000
ASUS43 KFSD 282102
RWRSD

WEATHER ROUNDUP FOR SOUTH DAKOTA
NATIONAL WEATHER SERVICE SIOUX FALLS SD
400 PM CDT THU MAY 28 2015

NOTE: "FAIR" INDICATES FEW OR NO CLOUDS BELOW 12,000 FEET WITH NO
SIGNIFICANT WEATHER AND/OR OBSTRUCTIONS TO VISIBILITY.


SDZ001>005-009-010-012>017-282200-
NORTHWEST AND NORTH CENTRAL SOUTH DAKOTA

CITY           SKY/WX    TMP DP  RH WIND       PRES   REMARKS
BUFFALO          N/A     70  54  56 N8        29.86R
FAITH            N/A     60  55  83 NW21G33   29.90R
MOBRIDGE       MOSUNNY   78  59  51 SW5       29.82F
$$

SDZ012>016-024>037-041>051-057-063-072>074-282200-
SOUTHWEST AND SOUTH CENTRAL SOUTH DAKOTA

CITY           SKY/WX    TMP DP  RH WIND       PRES   REMARKS
RAPID CTY ARPT MOSUNNY   73  53  49 NW10      29.91F
PIERRE         PTSUNNY   81  61  50 W10       29.81F
CUSTER         LGT RAIN  52  47  83 VRB6      30.01S
ELLSWORTH AFB  PTSUNNY   69  51  53 NW8       29.92S
PHILIP         PTSUNNY   78  58  49 VRB6      29.85F
PINE RIDGE     CLOUDY    74  49  41 W10       29.90F
WINNER         FAIR      83  57  41 S17       29.85F
$$

SDZ004>011-016>023-039-040-282200-
NORTHEAST SOUTH DAKOTA

CITY           SKY/WX    TMP DP  RH WIND       PRES   REMARKS
ABERDEEN       PTSUNNY   85  58  39 S20G30    29.81F
WATERTOWN      MOSUNNY   80  58  46 S21G32    29.88F
BROOKINGS      PTSUNNY   81  59  47 S21G28    29.91F
SISSETON         N/A     84  58  40 SW23G33   29.83F
$$

SDZ017-020-022-023-036>040-048>070-282200-
SOUTHEAST SOUTH DAKOTA

CITY           SKY/WX    TMP DP  RH WIND       PRES   REMARKS
SIOUX FALLS    PTSUNNY   79  58  48 S15G29    29.91F
HURON            N/A    N/A N/A N/A MISG      29.83F
CHAMBERLAIN    PTSUNNY   81  59  47 S15G21    29.84F
MITCHELL       MOSUNNY   86  56  35 S13G24    29.85F
YANKTON        PTSUNNY   81  57  44 S21G32    29.89F
$$

ABBREVIATIONS USED IN REMARKS
   TC - TEMPERATURE IN CELSIUS
  WCI - WIND CHILL INDEX
   HX - HEAT INDEX
  VSB - VISIBILITY



USA.gov is the U.S. government's official web portal to all federal, state and local government web resources and services.